| time (UTC) | temp F | wind direction | speed knots | gust knots | rain 1hr in | rain 24hr in | rain mn in | humidity % | barometer mb |
| 20260506033550 | 52 | 34 | 2.6 | 8.7 | 0.00 | 0.07 | 0.07 | 65 | 1013.7 |
| 20260506033050 | 52 | 304 | 3.5 | 8.7 | 0.00 | 0.07 | 0.07 | 65 | 1013.5 |
| 20260506032548 | 53 | 314 | 3.5 | 10.4 | 0.00 | 0.07 | 0.07 | 65 | 1013.5 |
| 20260506032053 | 53 | 344 | 3.5 | 10.4 | 0.00 | 0.07 | 0.07 | 64 | 1013.4 |
| 20260506032047 | 53 | 316 | 4.3 | 13.0 | 0.00 | 0.07 | 0.07 | 64 | 1013.3 |
| 20260506031046 | 53 | 60 | 4.3 | 13.0 | 0.00 | 0.07 | 0.07 | 63 | 1013.2 |
| 20260506030551 | 53 | 86 | 4.3 | 10.4 | 0.00 | 0.07 | 0.07 | 62 | 1013.0 |
| 20260506030545 | 53 | 91 | 4.3 | 9.6 | 0.00 | 0.07 | 0.07 | 63 | 1013.1 |
| 20260506030220 | 54 | 14 | 3.5 | 11.3 | 0.00 | 0.07 | 0.07 | 60 | 1012.8 |
| 20260506030214 | 54 | 344 | 4.3 | 10.4 | 0.00 | 0.07 | 0.07 | 61 | 1013.0 |
| 20260506024543 | 54 | 1 | 4.3 | 11.3 | 0.00 | 0.07 | 0.07 | 59 | 1012.6 |
| 20260506024045 | 55 | 62 | 4.3 | 11.3 | 0.00 | 0.07 | 0.07 | 57 | 1012.5 |
| 20260506023544 | 55 | 321 | 4.3 | 11.3 | 0.00 | 0.07 | 0.07 | 57 | 1012.4 |
| 20260506023043 | 56 | 2 | 5.2 | 13.0 | 0.00 | 0.07 | 0.07 | 56 | 1012.1 |
| 20260506022544 | 57 | 324 | 2.6 | 13.0 | 0.00 | 0.07 | 0.07 | 55 | 1012.1 |
| 20260506022044 | 56 | 302 | 0.0 | 0.9 | 0.00 | 0.07 | 0.07 | 58 | 1011.6 |
| 20260506021541 | 56 | 219 | 0.0 | 0.9 | 0.00 | 0.07 | 0.07 | 59 | 1011.4 |
| 20260506021044 | 56 | 150 | 0.0 | 0.0 | 0.00 | 0.07 | 0.07 | 58 | 1011.3 |
| 20260506020540 | 56 | 150 | 0.0 | 0.0 | 0.00 | 0.07 | 0.07 | 57 | 1011.2 |
| 20260506020039 | 56 | 150 | 0.0 | 0.0 | 0.00 | 0.07 | 0.07 | 56 | 1011.1 |
| 20260506015545 | 58 | 214 | 0.0 | 0.9 | 0.00 | 0.07 | 0.07 | 54 | 1010.7 |
| 20260506015539 | 57 | 150 | 0.0 | 0.9 | 0.00 | 0.07 | 0.07 | 55 | 1010.9 |
| 20260506014541 | 58 | 293 | 0.0 | 0.9 | 0.00 | 0.07 | 0.07 | 53 | 1010.6 |
| 20260506014046 | 59 | 209 | 0.0 | 1.7 | 0.00 | 0.07 | 0.07 | 52 | 1010.6 |
| 20260506014040 | 58 | 205 | 0.0 | 1.7 | 0.00 | 0.07 | 0.07 | 53 | 1010.6 |
| 20260506013039 | 59 | 203 | 0.0 | 1.7 | 0.00 | 0.07 | 0.07 | 52 | 1010.5 |
| 20260506012537 | 59 | 172 | 0.0 | 1.7 | 0.00 | 0.07 | 0.07 | 51 | 1010.5 |
| 20260506012037 | 60 | 294 | 0.9 | 3.5 | 0.00 | 0.07 | 0.07 | 50 | 1010.5 |
| 20260506011537 | 60 | 304 | 0.9 | 3.5 | 0.00 | 0.07 | 0.07 | 49 | 1010.6 |
| 20260506011040 | 60 | 267 | 0.9 | 3.5 | 0.00 | 0.07 | 0.07 | 49 | 1010.5 |
| 20260506010535 | 60 | 307 | 0.9 | 3.5 | 0.00 | 0.07 | 0.07 | 49 | 1010.4 |
| 20260506010034 | 60 | 304 | 0.9 | 4.3 | 0.00 | 0.07 | 0.07 | 48 | 1010.3 |
| 20260506005534 | 61 | 299 | 0.9 | 5.2 | 0.00 | 0.07 | 0.07 | 48 | 1010.4 |
| 20260506005033 | 61 | 224 | 0.9 | 5.2 | 0.00 | 0.07 | 0.07 | 47 | 1010.3 |
| 20260506004534 | 61 | 330 | 0.0 | 1.7 | 0.00 | 0.07 | 0.07 | 53 | 1010.3 |
| 20260506004034 | 60 | 279 | 0.0 | 0.9 | 0.00 | 0.07 | 0.07 | 52 | 1010.7 |
| 20260506003535 | 61 | 184 | 0.0 | 0.9 | 0.00 | 0.07 | 0.07 | 47 | 1010.6 |
| 20260506003035 | 61 | 184 | 0.0 | 0.9 | 0.00 | 0.07 | 0.07 | 48 | 1010.3 |
| 20260506002538 | 62 | 154 | 0.0 | 0.9 | 0.00 | 0.07 | 0.07 | 46 | 1010.4 |
| 20260506002533 | 61 | 154 | 0.0 | 0.9 | 0.00 | 0.07 | 0.07 | 49 | 1010.5 |
| 20260506001533 | 62 | 226 | 0.0 | 0.9 | 0.00 | 0.07 | 0.07 | 47 | 1010.4 |
| 20260506001031 | 62 | 217 | 0.0 | 0.9 | 0.00 | 0.07 | 0.07 | 47 | 1010.3 |
| 20260506000536 | 64 | 270 | 0.9 | 2.6 | 0.00 | 0.07 | 0.07 | 45 | 1010.3 |
| 20260506000530 | 62 | 217 | 0.0 | 0.9 | 0.00 | 0.07 | 0.07 | 47 | 1010.0 |
| 20260506000031 | 62 | 219 | 0.9 | 2.6 | 0.00 | 0.07 | 0.07 | 46 | 1010.2 |
| 20260505235527 | 63 | 201 | 0.9 | 2.6 | 0.00 | 0.07 | 0.07 | 46 | 1010.3 |
| 20260505235150 | 64 | 181 | 0.9 | 2.6 | 0.00 | 0.07 | 0.07 | 45 | 1010.2 |
| 20260505234029 | 64 | 251 | 0.9 | 2.6 | 0.00 | 0.07 | 0.07 | 46 | 1010.3 |
| 20260505233533 | 63 | 229 | 0.9 | 3.5 | 0.00 | 0.07 | 0.07 | 47 | 1010.3 |
| 20260505233526 | 64 | 257 | 0.0 | 3.5 | 0.00 | 0.07 | 0.07 | 46 | 1010.3 |
| 20260505232528 | 63 | 74 | 0.0 | 1.7 | 0.00 | 0.07 | 0.07 | 47 | 1010.3 |
| 20260505232027 | 62 | 120 | 0.0 | 1.7 | 0.00 | 0.07 | 0.07 | 47 | 1010.4 |
| 20260505231525 | 62 | 150 | 0.9 | 3.5 | 0.00 | 0.07 | 0.07 | 49 | 1010.5 |
| 20260505231026 | 61 | 310 | 1.7 | 5.2 | 0.00 | 0.07 | 0.07 | 49 | 1010.6 |
| 20260505230526 | 61 | 275 | 1.7 | 5.2 | 0.00 | 0.07 | 0.07 | 49 | 1010.9 |
| 20260505230028 | 62 | 309 | 1.7 | 4.3 | 0.00 | 0.07 | 0.07 | 48 | 1010.7 |
| 20260505225526 | 61 | 273 | 1.7 | 5.2 | 0.00 | 0.07 | 0.07 | 48 | 1010.7 |
| 20260505225025 | 62 | 272 | 1.7 | 6.1 | 0.00 | 0.07 | 0.07 | 48 | 1010.7 |
| 20260505224532 | 62 | 169 | 0.0 | 2.6 | 0.04 | 0.07 | 0.07 | 50 | 1010.7 |
| 20260505224526 | 62 | 309 | 0.9 | 6.1 | 0.02 | 0.07 | 0.07 | 48 | 1010.7 |
| 20260505223525 | 61 | 140 | 0.9 | 3.5 | 0.04 | 0.07 | 0.07 | 52 | 1010.7 |
| 20260505223023 | 61 | 305 | 0.0 | 3.5 | 0.04 | 0.07 | 0.07 | 50 | 1010.9 |
| 20260505222532 | 60 | 184 | 0.9 | 2.6 | 0.04 | 0.07 | 0.07 | 59 | 1011.2 |
| 20260505222524 | 60 | 303 | 0.0 | 2.6 | 0.04 | 0.07 | 0.07 | 57 | 1011.0 |
| 20260505221523 | 58 | 233 | 0.0 | 2.6 | 0.04 | 0.07 | 0.07 | 64 | 1011.3 |
| 20260505221021 | 57 | 292 | 0.0 | 1.7 | 0.04 | 0.07 | 0.07 | 69 | 1011.6 |
| 20260505220522 | 56 | 214 | 0.9 | 5.2 | 0.04 | 0.07 | 0.07 | 71 | 1011.6 |
| 20260505220021 | 56 | 296 | 1.7 | 5.2 | 0.04 | 0.07 | 0.07 | 67 | 1011.8 |
| 20260505215521 | 56 | 177 | 1.7 | 5.2 | 0.04 | 0.07 | 0.07 | 71 | 1012.3 |
| 20260505215028 | 58 | 347 | 1.7 | 7.8 | 0.02 | 0.05 | 0.06 | 61 | 1012.0 |
| 20260505215021 | 56 | 142 | 2.6 | 7.8 | 0.04 | 0.07 | 0.07 | 67 | 1012.1 |
| 20260505214520 | 61 | 294 | 0.0 | 2.6 | 0.00 | 0.03 | 0.03 | 53 | 1011.8 |
| 20260505213520 | 62 | 248 | 0.0 | 1.7 | 0.00 | 0.03 | 0.03 | 50 | 1011.8 |
| 20260505213020 | 62 | 137 | 0.0 | 1.7 | 0.00 | 0.03 | 0.03 | 47 | 1011.7 |
| 20260505212518 | 63 | 224 | 0.0 | 1.7 | 0.00 | 0.03 | 0.03 | 46 | 1011.7 |
| 20260505212018 | 63 | 126 | 0.0 | 2.6 | 0.00 | 0.03 | 0.03 | 46 | 1011.7 |
| 20260505211518 | 62 | 221 | 0.9 | 2.6 | 0.00 | 0.03 | 0.03 | 46 | 1011.6 |
| 20260505211019 | 63 | 257 | 0.9 | 4.3 | 0.00 | 0.03 | 0.03 | 47 | 1011.7 |
| 20260505210516 | 63 | 303 | 0.9 | 4.3 | 0.00 | 0.03 | 0.03 | 46 | 1011.7 |
| 20260505210022 | 63 | 271 | 0.9 | 4.3 | 0.00 | 0.03 | 0.03 | 47 | 1011.7 |
| 20260505210016 | 63 | 348 | 0.9 | 4.3 | 0.00 | 0.03 | 0.03 | 47 | 1011.8 |
| 20260505205016 | 64 | 277 | 1.7 | 4.3 | 0.00 | 0.03 | 0.03 | 46 | 1011.8 |
| 20260505204515 | 64 | 162 | 1.7 | 4.3 | 0.00 | 0.03 | 0.03 | 45 | 1011.8 |
| 20260505204017 | 64 | 124 | 1.7 | 4.3 | 0.00 | 0.03 | 0.03 | 46 | 1011.8 |
| 20260505203515 | 65 | 153 | 0.9 | 4.3 | 0.00 | 0.03 | 0.03 | 45 | 1011.9 |
| 20260505203016 | 64 | 217 | 1.7 | 5.2 | 0.00 | 0.03 | 0.03 | 47 | 1012.1 |
| 20260505202518 | 63 | 323 | 1.7 | 5.2 | 0.00 | 0.03 | 0.03 | 49 | 1012.3 |
| 20260505202511 | 63 | 302 | 1.7 | 7.0 | 0.00 | 0.03 | 0.03 | 50 | 1012.3 |
| 20260505201509 | 62 | 75 | 1.7 | 7.0 | 0.00 | 0.03 | 0.03 | 51 | 1012.0 |
| 20260505201015 | 62 | 321 | 0.9 | 5.2 | 0.00 | 0.03 | 0.03 | 53 | 1012.0 |
| 20260505201009 | 63 | 44 | 1.7 | 5.2 | 0.00 | 0.03 | 0.03 | 51 | 1012.0 |
| 20260505200009 | 63 | 268 | 0.9 | 5.2 | 0.00 | 0.03 | 0.03 | 52 | 1012.1 |
| 20260505195510 | 62 | 273 | 0.9 | 4.3 | 0.00 | 0.03 | 0.03 | 54 | 1012.1 |
| 20260505195006 | 61 | 146 | 0.9 | 4.3 | 0.00 | 0.03 | 0.03 | 56 | 1012.3 |
| 20260505194506 | 60 | 295 | 0.9 | 4.3 | 0.00 | 0.03 | 0.03 | 57 | 1012.5 |
| 20260505194006 | 60 | 281 | 0.9 | 4.3 | 0.01 | 0.03 | 0.03 | 59 | 1012.6 |
| 20260505193509 | 59 | 314 | 1.7 | 6.1 | 0.01 | 0.03 | 0.03 | 63 | 1012.6 |
| 20260505193503 | 59 | 136 | 0.9 | 3.5 | 0.01 | 0.03 | 0.03 | 62 | 1012.6 |
| 20260505192500 | 59 | 293 | 1.7 | 6.1 | 0.01 | 0.03 | 0.03 | 59 | 1012.7 |
| 20260505191958 | 59 | 291 | 0.9 | 4.3 | 0.02 | 0.03 | 0.03 | 58 | 1012.7 |
| 20260505191457 | 59 | 359 | 0.9 | 4.3 | 0.02 | 0.03 | 0.03 | 60 | 1012.8 |
| 20260505190958 | 59 | 286 | 0.9 | 3.5 | 0.02 | 0.03 | 0.03 | 61 | 1013.0 |
| 20260505190456 | 58 | 319 | 0.9 | 3.5 | 0.02 | 0.03 | 0.03 | 67 | 1013.0 |
| 20260505190005 | 55 | 311 | 0.9 | 4.3 | 0.02 | 0.03 | 0.03 | 72 | 1013.0 |
| 20260505185957 | 57 | 284 | 0.9 | 4.3 | 0.02 | 0.03 | 0.03 | 72 | 1013.0 |
| 20260505185456 | 54 | 332 | 0.9 | 3.5 | 0.02 | 0.03 | 0.03 | 73 | 1013.0 |
| 20260505184454 | 54 | 312 | 1.7 | 4.3 | 0.02 | 0.03 | 0.03 | 69 | 1013.1 |
| 20260505183956 | 55 | 300 | 0.9 | 4.3 | 0.01 | 0.02 | 0.02 | 67 | 1013.1 |
| 20260505183504 | 56 | 275 | 0.9 | 3.5 | 0.01 | 0.02 | 0.02 | 62 | 1013.1 |
| 20260505183456 | 56 | 283 | 0.9 | 3.5 | 0.01 | 0.02 | 0.02 | 65 | 1013.1 |
| 20260505182456 | 58 | 269 | 0.0 | 2.6 | 0.01 | 0.02 | 0.02 | 60 | 1013.0 |
| 20260505181955 | 59 | 311 | 0.0 | 2.6 | 0.00 | 0.01 | 0.01 | 59 | 1012.8 |
| 20260505181454 | 60 | 240 | 0.0 | 1.7 | 0.00 | 0.01 | 0.01 | 53 | 1013.0 |
| 20260505180953 | 60 | 181 | 0.9 | 4.3 | 0.00 | 0.01 | 0.01 | 50 | 1013.0 |
| 20260505180454 | 62 | 211 | 0.9 | 4.3 | 0.00 | 0.01 | 0.01 | 50 | 1013.0 |
| 20260505175954 | 62 | 221 | 0.9 | 4.3 | 0.00 | 0.01 | 0.01 | 50 | 1012.8 |
| 20260505175452 | 62 | 134 | 0.9 | 4.3 | 0.00 | 0.01 | 0.01 | 47 | 1012.8 |
| 20260505174956 | 62 | 203 | 0.9 | 4.3 | 0.00 | 0.01 | 0.01 | 45 | 1012.8 |
| 20260505174453 | 61 | 150 | 0.9 | 4.3 | 0.00 | 0.01 | 0.01 | 45 | 1012.7 |
| 20260505173954 | 61 | 69 | 0.9 | 3.5 | 0.00 | 0.01 | 0.01 | 45 | 1012.7 |
| 20260505173451 | 61 | 71 | 0.9 | 3.5 | 0.00 | 0.01 | 0.01 | 45 | 1012.7 |
| 20260505172951 | 61 | 68 | 0.9 | 4.3 | 0.00 | 0.01 | 0.01 | 45 | 1012.7 |
| 20260505172452 | 61 | 297 | 0.9 | 4.3 | 0.00 | 0.01 | 0.01 | 45 | 1012.7 |
| 20260505171949 | 61 | 328 | 0.9 | 4.3 | 0.00 | 0.01 | 0.01 | 46 | 1012.8 |
| 20260505171449 | 61 | 323 | 0.9 | 3.5 | 0.00 | 0.01 | 0.01 | 46 | 1012.8 |
| 20260505171116 | 59 | 292 | 0.9 | 4.3 | 0.00 | 0.01 | 0.01 | 51 | 1013.1 |
| 20260505170955 | 60 | 315 | 0.9 | 2.6 | 0.00 | 0.01 | 0.01 | 48 | 1012.8 |
| 20260505170949 | 60 | 281 | 0.9 | 3.5 | 0.00 | 0.01 | 0.01 | 47 | 1012.8 |
| 20260505165449 | 58 | 349 | 0.9 | 4.3 | 0.00 | 0.01 | 0.01 | 51 | 1013.2 |
| 20260505164951 | 58 | 319 | 0.9 | 3.5 | 0.00 | 0.01 | 0.01 | 51 | 1013.1 |
| 20260505164450 | 57 | 77 | 0.9 | 3.5 | 0.00 | 0.01 | 0.01 | 54 | 1013.0 |
| 20260505163950 | 56 | 304 | 0.9 | 3.5 | 0.00 | 0.01 | 0.01 | 54 | 1012.8 |
| 20260505163448 | 56 | 301 | 0.9 | 4.3 | 0.00 | 0.01 | 0.01 | 55 | 1013.1 |
| 20260505162948 | 56 | 66 | 0.9 | 5.2 | 0.00 | 0.01 | 0.01 | 55 | 1013.2 |
| 20260505162456 | 55 | 326 | 1.7 | 5.2 | 0.00 | 0.01 | 0.01 | 58 | 1013.1 |
| 20260505162450 | 56 | 60 | 0.9 | 5.2 | 0.00 | 0.01 | 0.01 | 59 | 1013.2 |
| 20260505161449 | 54 | 316 | 1.7 | 6.1 | 0.00 | 0.01 | 0.01 | 58 | 1013.2 |
| 20260505160948 | 54 | 340 | 1.7 | 6.1 | 0.00 | 0.01 | 0.01 | 59 | 1013.4 |
| 20260505160449 | 54 | 77 | 1.7 | 6.1 | 0.00 | 0.01 | 0.01 | 59 | 1013.4 |
| 20260505152949 | 54 | 312 | 1.7 | 6.1 | 0.01 | 0.01 | 0.01 | 64 | 1013.7 |
| 20260505152446 | 54 | 334 | 1.7 | 7.0 | 0.01 | 0.01 | 0.01 | 63 | 1013.7 |
| 20260505151949 | 54 | 341 | 1.7 | 7.0 | 0.01 | 0.01 | 0.01 | 63 | 1013.7 |
| 20260505151448 | 54 | 303 | 1.7 | 4.3 | 0.01 | 0.01 | 0.01 | 65 | 1013.7 |
| 20260505150948 | 54 | 36 | 1.7 | 4.3 | 0.01 | 0.01 | 0.01 | 67 | 1013.7 |
| 20260505150446 | 53 | 13 | 0.9 | 5.2 | 0.01 | 0.01 | 0.01 | 67 | 1013.7 |
| 20260505124930 | 58 | 317 | 0.9 | 3.5 | 0.00 | 0.00 | 0.00 | 46 | 1012.5 |
| 20260505124429 | 58 | 304 | 0.9 | 3.5 | 0.00 | 0.00 | 0.00 | 45 | 1012.4 |
| 20260505123928 | 59 | 304 | 0.9 | 1.7 | 0.00 | 0.00 | 0.00 | 45 | 1012.5 |
| 20260505123432 | 59 | 325 | 0.9 | 2.6 | 0.00 | 0.00 | 0.00 | 43 | 1012.6 |
| 20260505123427 | 59 | 296 | 0.9 | 2.6 | 0.00 | 0.00 | 0.00 | 44 | 1012.6 |
| 20260505123051 | 59 | 323 | 0.9 | 2.6 | 0.00 | 0.00 | 0.00 | 43 | 1012.6 |
| 20260505121934 | 59 | 293 | 0.0 | 3.5 | 0.00 | 0.00 | 0.00 | 43 | 1012.7 |
| 20260505121927 | 59 | 306 | 0.0 | 2.6 | 0.00 | 0.00 | 0.00 | 43 | 1012.6 |
| 20260505120932 | 59 | 302 | 0.9 | 5.2 | 0.00 | 0.00 | 0.00 | 43 | 1012.6 |
| 20260505120927 | 59 | 323 | 0.0 | 3.5 | 0.00 | 0.00 | 0.00 | 43 | 1012.7 |
| 20260505120550 | 59 | 250 | 0.9 | 5.2 | 0.00 | 0.00 | 0.00 | 43 | 1012.5 |
| 20260505115430 | 58 | 308 | 0.0 | 3.5 | 0.00 | 0.00 | 0.00 | 43 | 1012.4 |
| 20260505115425 | 59 | 302 | 0.0 | 3.5 | 0.00 | 0.00 | 0.00 | 43 | 1012.4 |
| 20260505114424 | 58 | 75 | 0.0 | 0.0 | 0.00 | 0.00 | 0.00 | 43 | 1012.4 |
| 20260505113924 | 59 | 75 | 0.0 | 0.9 | 0.00 | 0.00 | 0.00 | 43 | 1012.3 |
| 20260505113424 | 59 | 75 | 0.0 | 0.9 | 0.00 | 0.00 | 0.00 | 42 | 1012.1 |
| 20260505112928 | 59 | 78 | 0.0 | 1.7 | 0.00 | 0.00 | 0.00 | 41 | 1012.3 |
| 20260505112923 | 59 | 78 | 0.0 | 1.7 | 0.00 | 0.00 | 0.00 | 41 | 1012.3 |
| 20260505112546 | 59 | 79 | 0.9 | 2.6 | 0.00 | 0.00 | 0.00 | 40 | 1012.1 |
| 20260505111921 | 59 | 79 | 0.9 | 2.6 | 0.00 | 0.00 | 0.00 | 40 | 1012.1 |
| 20260505110923 | 59 | 328 | 0.0 | 0.9 | 0.00 | 0.00 | 0.00 | 39 | 1012.1 |
| 20260505110426 | 59 | 285 | 0.0 | 2.6 | 0.00 | 0.00 | 0.00 | 38 | 1012.4 |
| 20260505110422 | 59 | 320 | 0.0 | 0.9 | 0.00 | 0.00 | 0.00 | 39 | 1012.4 |
| 20260505101918 | 59 | 214 | 0.0 | 0.9 | 0.00 | 0.00 | 0.00 | 36 | 1012.6 |
| 20260505101425 | 59 | 279 | 0.0 | 1.7 | 0.00 | 0.00 | 0.00 | 36 | 1012.5 |
| 20260505101418 | 59 | 213 | 0.0 | 0.9 | 0.00 | 0.00 | 0.00 | 36 | 1012.5 |
| 20260505100420 | 60 | 319 | 0.0 | 2.6 | 0.00 | 0.00 | 0.00 | 35 | 1012.3 |
| 20260505095924 | 59 | 261 | 0.0 | 2.6 | 0.00 | 0.00 | 0.00 | 35 | 1012.3 |
| 20260505095918 | 59 | 270 | 0.0 | 2.6 | 0.00 | 0.00 | 0.00 | 35 | 1012.3 |
| 20260505094918 | 59 | 293 | 0.0 | 0.9 | 0.00 | 0.00 | 0.00 | 36 | 1012.3 |
| 20260505094421 | 59 | 288 | 0.0 | 0.9 | 0.00 | 0.00 | 0.00 | 36 | 1012.4 |
| 20260505094416 | 59 | 288 | 0.0 | 0.9 | 0.00 | 0.00 | 0.00 | 36 | 1012.3 |
| 20260505094046 | 59 | 288 | 0.0 | 0.9 | 0.00 | 0.00 | 0.00 | 35 | 1012.3 |
| 20260505094040 | 59 | 288 | 0.0 | 0.0 | 0.00 | 0.00 | 0.00 | 36 | 1012.3 |
| 20260505092416 | 60 | 288 | 0.0 | 0.9 | 0.00 | 0.00 | 0.00 | 35 | 1012.3 |
| 20260505091917 | 60 | 288 | 0.0 | 0.0 | 0.00 | 0.00 | 0.00 | 34 | 1012.4 |
| 20260505091419 | 60 | 288 | 0.0 | 0.0 | 0.00 | 0.00 | 0.00 | 35 | 1012.4 |
| 20260505090922 | 60 | 315 | 0.0 | 0.9 | 0.00 | 0.00 | 0.00 | 35 | 1012.4 |
| 20260505090916 | 60 | 315 | 0.0 | 0.9 | 0.00 | 0.00 | 0.00 | 35 | 1012.5 |
| 20260505085915 | 60 | 248 | 0.0 | 0.9 | 0.00 | 0.00 | 0.00 | 35 | 1012.6 |
| 20260505085416 | 60 | 222 | 0.0 | 0.9 | 0.00 | 0.00 | 0.00 | 35 | 1012.7 |
| 20260505084918 | 60 | 217 | 0.0 | 0.9 | 0.00 | 0.00 | 0.00 | 34 | 1012.7 |
| 20260505084912 | 61 | 217 | 0.0 | 2.6 | 0.00 | 0.00 | 0.00 | 34 | 1012.7 |
| 20260505083919 | 61 | 149 | 0.0 | 1.7 | 0.00 | 0.00 | 0.00 | 33 | 1013.0 |
| 20260505083912 | 61 | 213 | 0.0 | 2.6 | 0.00 | 0.00 | 0.00 | 33 | 1013.0 |
| 20260505082917 | 62 | 284 | 0.9 | 2.6 | 0.00 | 0.00 | 0.00 | 32 | 1013.0 |
| 20260505082911 | 62 | 225 | 0.0 | 2.6 | 0.00 | 0.00 | 0.00 | 32 | 1013.1 |
| 20260505081911 | 62 | 259 | 0.9 | 3.5 | 0.00 | 0.00 | 0.00 | 32 | 1012.8 |
| 20260505081414 | 62 | 257 | 0.9 | 5.2 | 0.00 | 0.00 | 0.00 | 32 | 1012.7 |
| 20260505080910 | 62 | 175 | 0.9 | 6.1 | 0.00 | 0.00 | 0.00 | 31 | 1012.7 |
| 20260505080417 | 62 | 280 | 0.9 | 5.2 | 0.00 | 0.00 | 0.00 | 31 | 1012.8 |
| 20260505080409 | 62 | 8 | 0.9 | 6.1 | 0.00 | 0.00 | 0.00 | 31 | 1012.7 |
| 20260505080036 | 62 | 275 | 0.9 | 4.3 | 0.00 | 0.00 | 0.00 | 32 | 1013.0 |
| 20260505074911 | 63 | 220 | 0.9 | 7.0 | 0.00 | 0.00 | 0.00 | 32 | 1013.0 |
| 20260505074412 | 63 | 124 | 1.7 | 7.0 | 0.00 | 0.00 | 0.00 | 32 | 1012.8 |
| 20260505073911 | 63 | 284 | 1.7 | 7.0 | 0.00 | 0.00 | 0.00 | 31 | 1012.8 |
| 20260505073411 | 63 | 202 | 1.7 | 7.8 | 0.00 | 0.00 | 0.00 | 31 | 1012.8 |
| 20260505072916 | 63 | 207 | 1.7 | 6.1 | 0.00 | 0.00 | 0.00 | 31 | 1012.8 |
| 20260505072911 | 63 | 340 | 1.7 | 7.8 | 0.00 | 0.00 | 0.00 | 31 | 1012.7 |
| 20260505071908 | 64 | 246 | 1.7 | 6.1 | 0.00 | 0.00 | 0.00 | 31 | 1012.8 |
| 20260505071408 | 64 | 317 | 0.9 | 9.6 | 0.00 | 0.00 | 0.00 | 31 | 1012.8 |
| 20260505070907 | 64 | 240 | 1.7 | 9.6 | 0.00 | 0.00 | 0.00 | 31 | 1012.8 |
| 20260505070407 | 64 | 170 | 1.7 | 8.7 | 0.00 | 0.00 | 0.00 | 31 | 1012.8 |
| 20260505065905 | 64 | 46 | 2.6 | 9.6 | 0.00 | 0.00 | 0.00 | 30 | 1012.6 |
| 20260505065413 | 64 | 171 | 2.6 | 10.4 | 0.00 | 0.00 | 0.00 | 30 | 1012.5 |
| 20260505065408 | 64 | 258 | 2.6 | 9.6 | 0.00 | 0.00 | 0.00 | 30 | 1012.6 |
| 20260505065029 | 65 | 238 | 2.6 | 10.4 | 0.00 | 0.00 | 0.00 | 29 | 1012.5 |
| 20260505063906 | 65 | 284 | 2.6 | 8.7 | 0.00 | 0.00 | 0.00 | 29 | 1012.4 |
| 20260505063407 | 65 | 225 | 2.6 | 8.7 | 0.00 | 0.00 | 0.00 | 28 | 1012.4 |
| 20260505062903 | 65 | 270 | 1.7 | 7.0 | 0.00 | 0.00 | 0.00 | 28 | 1012.3 |
| 20260505062404 | 65 | 326 | 1.7 | 7.0 | 0.00 | 0.00 | 0.00 | 28 | 1012.0 |
| 20260505061904 | 65 | 173 | 0.9 | 7.0 | 0.00 | 0.00 | 0.00 | 28 | 1012.3 |
| 20260505061405 | 65 | 329 | 0.9 | 4.3 | 0.00 | 0.00 | 0.00 | 28 | 1012.4 |
| 20260505060904 | 65 | 329 | 1.7 | 4.3 | 0.00 | 0.00 | 0.00 | 27 | 1012.3 |
| 20260505060402 | 65 | 271 | 0.9 | 7.0 | 0.00 | 0.00 | 0.00 | 27 | 1012.5 |
| 20260505055902 | 65 | 277 | 0.9 | 7.0 | 0.00 | 0.00 | 0.00 | 27 | 1012.4 |
| 20260505055402 | 66 | 300 | 0.9 | 6.1 | 0.00 | 0.00 | 0.00 | 27 | 1012.5 |
| 20260505054903 | 66 | 279 | 1.7 | 6.1 | 0.00 | 0.00 | 0.00 | 27 | 1012.4 |
| 20260505054402 | 66 | 323 | 1.7 | 7.0 | 0.00 | 0.00 | 0.00 | 27 | 1012.4 |
| 20260505053904 | 66 | 269 | 1.7 | 7.0 | 0.00 | 0.00 | 0.00 | 26 | 1012.4 |
| 20260505053401 | 66 | 306 | 1.7 | 5.2 | 0.00 | 0.00 | 0.00 | 26 | 1012.3 |
| 20260505052908 | 67 | 248 | 1.7 | 7.0 | 0.00 | 0.00 | 0.00 | 25 | 1012.3 |
| 20260505052903 | 67 | 246 | 1.7 | 7.0 | 0.00 | 0.00 | 0.00 | 26 | 1012.3 |
| 20260505051859 | 67 | 285 | 0.9 | 4.3 | 0.00 | 0.00 | 0.00 | 25 | 1012.1 |
| 20260505051400 | 67 | 226 | 0.9 | 4.3 | 0.00 | 0.00 | 0.00 | 25 | 1012.1 |
| 20260505050901 | 67 | 270 | 0.9 | 5.2 | 0.00 | 0.00 | 0.00 | 25 | 1012.1 |
| 20260505050359 | 67 | 68 | 1.7 | 5.2 | 0.00 | 0.00 | 0.00 | 25 | 1012.0 |
| 20260505041350 | 68 | 266 | 0.0 | 3.5 | 0.00 | 0.00 | 0.00 | 25 | 1011.9 |
| 20260505040849 | 68 | 110 | 0.9 | 4.3 | 0.00 | 0.00 | 0.00 | 25 | 1011.8 |
| 20260505040349 | 68 | 227 | 0.9 | 4.3 | 0.00 | 0.00 | 0.00 | 25 | 1011.9 |
| 20260505035851 | 68 | 227 | 0.0 | 2.6 | 0.00 | 0.00 | 0.00 | 25 | 1011.9 |
| 20260505035354 | 68 | 269 | 0.0 | 1.7 | 0.00 | 0.00 | 0.00 | 25 | 1011.9 |
| 20260505035348 | 69 | 295 | 0.0 | 3.5 | 0.00 | 0.00 | 0.00 | 25 | 1011.8 |
| 20260505034347 | 69 | 241 | 0.9 | 4.3 | 0.00 | 0.00 | 0.00 | 25 | 1011.8 |